Fort Campbell, KY

10:45 AM CST on February 13, 2016 (GMT -0600)
Campbell Army Air Field

Weather History for KHOP - October, 2011

Change the Weather History Date:

Wednesday, October 26, 2011

  Actual Average Record
Temperature  
Mean Temperature 68 °F -  
Max Temperature 77 °F 67 °F 82 °F (2000)
Min Temperature 59 °F 45 °F 30 °F (2013)
Cooling Degree Days 2    
Growing Degree Days 18 (Base 50)    
Moisture  
Dew Point 54 °F    
Average Humidity 61    
Maximum Humidity 68    
Minimum Humidity 54    
Precipitation  
Precipitation 0.00 in - - ()
Sea Level Pressure  
Sea Level Pressure 29.92 in    
Wind  
Wind Speed 12 mph (SW)    
Max Wind Speed 20 mph    
Max Gust Speed 30 mph    
Visibility 10 miles    
Events      
Averages and records for this station are not official NWS values.
T = Trace of Precipitation, MM = Missing Value Source: NWS Daily Summary

Daily Weather History Graph

Daily Weather History Graph

Search for Another Location

Airport or City:

Trip Planner

Search our weather history database for the weather conditions in past years. The results will help you decide how hot, cold, wet, or windy it might be!

Date:

Astronomy

Oct. 26, 2011 Rise Set
Actual Time 7:07 AM CDT 5:59 PM CDT
Civil Twilight 6:40 AM CDT 6:26 PM CDT
Nautical Twilight 6:10 AM CDT 6:56 PM CDT
Astronomical Twilight 5:40 AM CDT 7:26 PM CDT
Moon 6:53 AM CDT (10/26) 5:44 PM CDT (10/26)
Length of Visible Light 11h 45m
Length of Day
10h 52m
Waning Crescent, 0% of the Moon is Illuminated
Oct 26
Waning Crescent
Oct 26
New
Nov 2
First Quarter
Nov 10
Full
Nov 18
Last Quarter

Hourly Weather History & Observations

Time (CDT) Temp. Dew Point Humidity Pressure Visibility Wind Dir Wind Speed Gust Speed Precip Events Conditions
12:55 AM 61.0 °F 48.0 °F 62% 30.01 in 10.0 mi SSW 9.2 mph - N/A   Mostly Cloudy
1:55 AM 61.9 °F 48.9 °F 62% 30.00 in 10.0 mi SSW 10.4 mph - N/A   Overcast
2:55 AM 61.9 °F 48.9 °F 62% 29.99 in 10.0 mi SSW 11.5 mph - N/A   Overcast
3:55 AM 61.5 °F 48.7 °F 63% 29.98 in 10.0 mi SSW 10.4 mph - N/A   Mostly Cloudy
4:55 AM 61.9 °F 48.9 °F 62% 29.98 in 10.0 mi SSW 10.4 mph - N/A   Mostly Cloudy
5:55 AM 61.3 °F 48.9 °F 64% 29.98 in 10.0 mi SSW 9.2 mph - N/A   Overcast
6:55 AM 59.5 °F 49.1 °F 68% 29.97 in 10.0 mi SSW 10.4 mph - N/A   Partly Cloudy
7:55 AM 61.0 °F 50.5 °F 68% 29.98 in 10.0 mi SSW 9.2 mph - N/A   Mostly Cloudy
8:55 AM 64.4 °F 52.7 °F 66% 29.98 in 10.0 mi SSW 12.7 mph - N/A   Mostly Cloudy
9:55 AM 68.7 °F 54.1 °F 60% 29.97 in 10.0 mi SW 18.4 mph 29.9 mph N/A   Scattered Clouds
10:55 AM 72.0 °F 54.9 °F 55% 29.95 in 10.0 mi SW 18.4 mph 25.3 mph N/A   Scattered Clouds
11:55 AM 71.2 °F 55.8 °F 58% 29.95 in 10.0 mi SW 16.1 mph - N/A   Scattered Clouds
12:55 PM 73.6 °F 57.2 °F 56% 29.92 in 10.0 mi SSW 11.5 mph - N/A   Scattered Clouds
1:55 PM 76.3 °F 58.5 °F 54% 29.88 in 10.0 mi SSW 17.3 mph 23.0 mph N/A   Clear
2:55 PM 75.7 °F 58.8 °F 56% 29.87 in 10.0 mi SW 15.0 mph - N/A   Mostly Cloudy
3:55 PM 75.7 °F 58.3 °F 55% 29.86 in 10.0 mi SW 19.6 mph 27.6 mph N/A   Mostly Cloudy
4:55 PM 75.0 °F 58.5 °F 56% 29.86 in 10.0 mi SW 10.4 mph - N/A   Scattered Clouds
5:55 PM 72.9 °F 58.3 °F 60% 29.86 in 10.0 mi SW 11.5 mph - N/A   Mostly Cloudy
6:55 PM 69.4 °F 58.5 °F 68% 29.86 in 10.0 mi SW 6.9 mph - N/A   Overcast
7:55 PM 70.2 °F 57.9 °F 65% 29.85 in 10.0 mi SSW 9.2 mph - N/A   Mostly Cloudy
8:55 PM 70.9 °F 56.5 °F 60% 29.85 in 10.0 mi SSW 13.8 mph - N/A   Overcast
9:55 PM 69.8 °F 55.0 °F 59% 29.85 in 10.0 mi SSW 15.0 mph - N/A   Mostly Cloudy
10:55 PM 69.4 °F 54.3 °F 59% 29.84 in 10.0 mi SW 11.5 mph - N/A   Overcast
11:55 PM 69.1 °F 54.7 °F 60% 29.83 in 6.0 mi West 6.9 mph - N/A   Haze